FW3841 Weather Reports


time (UTC)temp
C
wind
direction
speed
KPH
gust
KPH
rain 1hr
cm
rain 24hr
cm
rain mn
cm
humidity
%
barometer
mb
20260505040054 13 0 1.6 4.8 0.00 0.00 0.00 84 1014.7
20260505035542 13 0 0.0 3.2 0.00 0.00 0.00 84 1014.8
20260505035042 13 0 0.0 3.2 0.00 0.00 0.00 83 1014.7
20260505034553 13 0 0.0 3.2 0.00 0.00 0.00 83 1014.6
20260505034040 14 38 0.0 4.8 0.00 0.00 0.00 83 1014.5
20260505033541 14 38 0.0 4.8 0.00 0.00 0.00 82 1014.3
20260505033051 14 0 0.0 4.8 0.00 0.00 0.00 82 1014.2
20260505032541 15 149 1.6 4.8 0.00 0.00 0.00 82 1014.2
20260505032040 15 0 0.0 4.8 0.00 0.00 0.00 81 1014.1
20260505031552 15 153 0.0 4.8 0.00 0.00 0.00 81 1014.1
20260505031041 15 82 0.0 4.8 0.00 0.00 0.00 80 1014.0
20260505030543 16 13 1.6 4.8 0.00 0.00 0.00 79 1013.9
20260505030053 16 138 0.0 3.2 0.00 0.00 0.00 79 1013.7
20260505025541 16 0 0.0 3.2 0.00 0.00 0.00 78 1013.7
20260505025041 16 0 0.0 3.2 0.00 0.00 0.00 78 1013.6
20260505024552 16 44 0.0 4.8 0.00 0.00 0.00 77 1013.5
20260505024040 16 0 1.6 4.8 0.00 0.00 0.00 77 1013.5
20260505023541 17 223 0.0 4.8 0.00 0.00 0.00 76 1013.5
20260505023054 17 221 1.6 4.8 0.00 0.00 0.00 76 1013.4
20260505022542 17 159 0.0 4.8 0.00 0.00 0.00 76 1013.5
20260505022043 17 0 0.0 4.8 0.00 0.00 0.00 75 1013.5
20260505021549 17 0 0.0 4.8 0.00 0.00 0.00 74 1013.6
20260505021039 18 5 1.6 8.0 0.00 0.00 0.00 74 1013.5
20260505020540 18 229 1.6 8.0 0.00 0.00 0.00 74 1013.4
20260505020054 18 209 1.6 6.4 0.00 0.00 0.00 73 1013.4
20260505015541 18 0 0.0 6.4 0.00 0.00 0.00 72 1013.3
20260505015040 19 143 1.6 6.4 0.00 0.00 0.00 72 1013.3
20260505014555 19 0 1.6 6.4 0.00 0.00 0.00 71 1013.2
20260505014041 20 150 1.6 4.8 0.00 0.00 0.00 70 1013.1
20260505013540 20 173 0.0 9.7 0.00 0.00 0.00 69 1013.1
20260505013047 20 212 1.6 12.9 0.00 0.00 0.00 69 1013.0
20260505012543 20 304 1.6 12.9 0.00 0.00 0.00 68 1013.0
20260505012043 20 287 3.2 8.0 0.00 0.00 0.00 66 1013.0
20260505011554 20 0 1.6 11.3 0.00 0.00 0.00 66 1013.0
20260505011042 21 125 3.2 11.3 0.00 0.00 0.00 64 1013.1
20260505010540 21 213 3.2 6.4 0.00 0.00 0.00 64 1013.1
20260505010112 22 81 1.6 6.4 0.00 0.00 0.00 62 1013.0
20260505005543 22 53 0.0 8.0 0.00 0.00 0.00 61 1013.0
20260505005041 22 0 1.6 8.0 0.00 0.00 0.00 62 1012.9
20260505004551 23 134 1.6 8.0 0.00 0.00 0.00 59 1013.1
20260505004042 23 0 1.6 8.0 0.00 0.00 0.00 59 1013.1
20260505003540 23 202 3.2 8.0 0.00 0.00 0.00 58 1013.0
20260505003055 24 138 0.0 8.0 0.00 0.00 0.00 57 1013.0
20260505002540 24 167 1.6 8.0 0.00 0.00 0.00 56 1013.0
20260505002040 24 0 0.0 11.3 0.00 0.00 0.00 55 1013.0
20260505001552 24 232 1.6 11.3 0.00 0.00 0.00 57 1013.0
20260505001043 24 98 1.6 4.8 0.00 0.00 0.00 56 1012.9
20260505000540 24 153 1.6 4.8 0.00 0.00 0.00 57 1012.9
20260505000050 24 0 0.0 4.8 0.00 0.00 0.00 59 1012.9
20260504235541 24 136 0.0 6.4 0.00 0.00 0.00 58 1012.9
20260504235045 23 168 1.6 11.3 0.00 0.00 0.00 58 1012.9
20260504234551 23 117 1.6 11.3 0.00 0.00 0.00 58 1012.8
20260504234040 23 0 1.6 11.3 0.00 0.00 0.00 57 1012.9
20260504233540 23 86 1.6 6.4 0.00 0.00 0.00 58 1012.9
20260504233057 23 350 1.6 14.5 0.00 0.00 0.00 58 1012.8
20260504232541 23 132 3.2 14.5 0.00 0.00 0.00 56 1012.8
20260504232040 24 228 3.2 12.9 0.00 0.00 0.00 57 1012.8
20260504231548 24 321 1.6 9.7 0.00 0.00 0.00 57 1012.8
20260504231040 24 114 1.6 14.5 0.00 0.00 0.00 59 1012.9
20260504230542 24 196 3.2 14.5 0.00 0.00 0.00 57 1012.8
20260504230054 24 107 3.2 9.7 0.00 0.00 0.00 56 1012.8
20260504225540 24 90 1.6 8.0 0.00 0.00 0.00 59 1012.9
20260504225042 24 142 3.2 12.9 0.00 0.00 0.00 58 1012.9
20260504224558 24 0 3.2 12.9 0.00 0.00 0.00 56 1013.0
20260504224040 25 5 1.6 6.4 0.00 0.00 0.00 57 1012.9
20260504223546 25 287 1.6 9.7 0.00 0.00 0.00 56 1012.9
20260504223101 25 355 3.2 12.9 0.00 0.00 0.00 52 1013.0
20260504222540 25 117 3.2 12.9 0.00 0.00 0.00 54 1013.0
20260504222040 25 309 0.0 12.9 0.00 0.00 0.00 54 1013.2
20260504221603 25 312 1.6 12.9 0.00 0.00 0.00 57 1013.1
20260504221040 24 147 3.2 8.0 0.00 0.00 0.00 57 1013.1
20260504220540 25 35 0.0 8.0 0.00 0.00 0.00 58 1013.1
20260504220052 25 106 1.6 8.0 0.00 0.00 0.00 57 1013.2
20260504215540 25 131 1.6 9.7 0.00 0.00 0.00 55 1013.1
20260504215040 25 199 3.2 9.7 0.00 0.00 0.00 56 1013.2
20260504214600 25 134 1.6 9.7 0.00 0.00 0.00 58 1013.2
20260504214041 25 146 0.0 9.7 0.00 0.00 0.00 60 1013.3
20260504213540 24 155 1.6 6.4 0.00 0.00 0.00 59 1013.4
20260504213103 24 225 1.6 9.7 0.00 0.00 0.00 58 1013.5
20260504212540 24 0 1.6 11.3 0.00 0.00 0.00 57 1013.5
20260504212042 24 290 4.8 11.3 0.00 0.00 0.00 57 1013.6
20260504211552 24 128 1.6 9.7 0.00 0.00 0.00 55 1013.7
20260504211039 24 33 1.6 9.7 0.00 0.00 0.00 57 1013.8
20260504210540 23 296 1.6 6.4 0.00 0.00 0.00 55 1013.8
20260504210053 23 167 1.6 9.7 0.00 0.00 0.00 57 1013.9
20260504205542 23 171 3.2 9.7 0.00 0.00 0.00 55 1013.9
20260504205040 23 194 1.6 8.0 0.00 0.00 0.00 59 1014.0
20260504204553 23 180 1.6 8.0 0.00 0.00 0.00 58 1014.0
20260504204040 22 175 1.6 8.0 0.00 0.00 0.00 56 1014.1
20260504203540 22 153 1.6 12.9 0.00 0.00 0.00 57 1014.1
20260504203054 22 0 3.2 12.9 0.00 0.00 0.00 56 1014.1
20260504202540 22 19 1.6 9.7 0.00 0.00 0.00 57 1014.1
20260504202039 22 26 0.0 8.0 0.00 0.00 0.00 61 1014.1
20260504201549 22 351 1.6 8.0 0.00 0.00 0.00 57 1014.2
20260504201043 22 121 3.2 8.0 0.00 0.00 0.00 59 1014.3
20260504200540 22 48 1.6 6.4 0.00 0.00 0.00 62 1014.3
20260504200054 22 146 1.6 9.7 0.00 0.00 0.00 65 1014.4
20260504195539 21 163 3.2 9.7 0.00 0.00 0.00 65 1014.4
20260504195039 21 211 1.6 9.7 0.00 0.00 0.00 67 1014.5
20260504194557 21 194 3.2 9.7 0.00 0.00 0.00 68 1014.6
20260504194040 21 0 1.6 6.4 0.00 0.00 0.00 66 1014.5
20260504193544 20 106 1.6 8.0 0.00 0.00 0.00 64 1014.6
20260504193100 20 106 3.2 8.0 0.00 0.00 0.00 65 1014.6
20260504192540 21 0 1.6 6.4 0.00 0.00 0.00 67 1014.8
20260504192044 20 79 1.6 6.4 0.00 0.00 0.00 68 1014.9
20260504191601 20 5 1.6 6.4 0.00 0.00 0.00 66 1014.9
20260504191040 20 355 1.6 8.0 0.00 0.00 0.00 69 1014.8
20260504190541 20 227 1.6 9.7 0.00 0.00 0.00 70 1015.0
20260504190053 20 325 3.2 9.7 0.00 0.00 0.00 68 1014.9
20260504185540 20 42 3.2 9.7 0.00 0.00 0.00 69 1014.9
20260504185042 20 200 1.6 6.4 0.00 0.00 0.00 70 1014.9
20260504184555 19 89 3.2 6.4 0.00 0.00 0.00 68 1015.0
20260504184043 20 105 3.2 6.4 0.00 0.00 0.00 68 1015.1
20260504183540 20 343 1.6 6.4 0.00 0.00 0.00 71 1015.0
20260504183050 19 0 1.6 6.4 0.00 0.00 0.00 73 1015.0
20260504182542 19 144 1.6 4.8 0.00 0.00 0.00 73 1015.0
20260504182040 19 133 1.6 4.8 0.00 0.00 0.00 72 1015.1
20260504181556 18 138 0.0 4.8 0.00 0.00 0.00 76 1015.1
20260504181040 18 229 1.6 6.4 0.00 0.00 0.00 77 1015.2
20260504180540 17 0 1.6 6.4 0.00 0.00 0.00 77 1015.2
20260504180103 17 270 1.6 8.0 0.00 0.00 0.00 77 1015.2
20260504175540 17 280 3.2 8.0 0.00 0.00 0.00 76 1015.2
20260504175041 16 96 1.6 8.0 0.00 0.00 0.00 80 1015.2
20260504174555 16 24 4.8 8.0 0.00 0.00 0.00 77 1015.2
20260504174041 16 5 3.2 8.0 0.00 0.00 0.00 79 1015.1
20260504173540 16 15 1.6 6.4 0.00 0.00 0.00 78 1015.2
20260504173101 16 5 1.6 4.8 0.00 0.00 0.00 78 1015.2
20260504172540 16 108 1.6 6.4 0.00 0.00 0.00 79 1015.2
20260504172040 16 0 1.6 6.4 0.00 0.00 0.00 81 1015.2
20260504171600 16 158 1.6 4.8 0.00 0.00 0.00 82 1015.2
20260504171041 15 103 1.6 8.0 0.00 0.00 0.00 82 1015.3
20260504170544 15 322 3.2 8.0 0.00 0.00 0.00 82 1015.3
20260504160115 12 0 0.0 3.2 0.00 0.00 0.00 88 1015.3
20260504151040 11 0 0.0 6.4 0.00 0.00 0.00 91 1015.1
20260504150540 11 19 0.0 4.8 0.00 0.00 0.00 91 1015.0
20260504150111 11 77 0.0 4.8 0.00 0.00 0.00 91 1014.9
20260504141041 10 0 0.0 3.2 0.00 0.00 0.00 94 1014.5
20260504140539 10 91 0.0 3.2 0.00 0.00 0.00 94 1014.5
20260504130542 8 0 0.0 0.0 0.00 0.00 0.00 93 1013.9
20260504110542 8 0 0.0 0.0 0.00 0.00 0.00 92 1012.4
20260504100540 8 0 0.0 1.6 0.00 0.00 0.00 92 1012.2
20260504081554 10 0 0.0 0.0 0.00 0.00 0.00 90 1011.9
20260504081039 10 0 0.0 0.0 0.00 0.00 0.00 90 1012.0
20260504080541 10 0 0.0 0.0 0.00 0.00 0.00 90 1011.8
20260504080110 10 0 0.0 0.0 0.00 0.00 0.00 90 1011.9
20260504050541 15 0 0.0 1.6 0.00 0.00 0.00 83 1011.2
20260504045540 15 0 0.0 3.2 0.00 0.00 0.00 82 1011.1
20260504045040 15 0 0.0 1.6 0.00 0.00 0.00 82 1011.1
20260504044551 16 0 0.0 1.6 0.00 0.00 0.00 81 1011.0
20260504044040 16 13 0.0 0.0 0.00 0.00 0.00 81 1011.1
20260504043541 16 0 0.0 1.6 0.00 0.00 0.00 80 1011.0
20260504043103 16 0 0.0 1.6 0.00 0.00 0.00 79 1011.0
20260504042540 17 0 0.0 0.0 0.00 0.00 0.00 78 1010.9
20260504042041 17 0 0.0 1.6 0.00 0.00 0.00 76 1010.8
20260504041550 17 0 0.0 1.6 0.00 0.00 0.00 75 1010.8
20260504041041 17 0 0.0 1.6 0.00 0.00 0.00 75 1010.7
20260504040544 18 14 0.0 1.6 0.00 0.00 0.00 74 1010.7